[[[{"header":{"parameterUnit":"kt","parameterCategory":2,"dx":1,"dy":1,"la1":30.253999710083008,"la2":30.299108505249023,"lo1":-89.0895004272461,"lo2":-89.04439544677734,"nx":28,"ny":28,"refTime":"2022-09-23T21:00:00:Z","depth":0,"parameterNumber":1,"parameterNumberName":"U-component_of_WINDS"},"data":[-5.7068,-5.7195,-5.7203,-5.7352,-5.7384,-5.7487,-5.7526,-5.7578,-5.7621,-5.7745,-5.7818,-5.784,-5.7886,-5.7975,-5.8054,-5.8062,-5.8094,-5.8134,-5.8136,-5.7952,-5.7927,-5.7903,-5.7872,-5.8142,-5.8142,-5.8324,-5.8326,-5.8327,-5.6933,-5.6966,-5.7048,-5.7131,-5.7201,-5.7168,-5.7232,-5.7292,-5.7385,-5.744,-5.7512,-5.7622,-5.771,-5.7743,-5.7829,-5.7889,-5.7877,-5.7911,-5.7906,-5.7913,-5.7718,-5.7685,-5.7919,-5.7919,-5.7919,-5.7919,-5.7919,-5.7919,-5.669,-5.6766,-5.6821,-5.6909,-5.6953,-5.7009,-5.7083,-5.7107,-5.7186,-5.7276,-5.727,-5.7376,-5.7432,-5.7538,-5.7576,-5.7659,-5.7622,-5.7661,-5.7671,-5.768,-5.7689,-5.7423,-5.7674,-5.7673,-5.7673,-5.7672,-5.7672,0,-5.6514,-5.6515,-5.6593,-5.6674,-5.6738,-5.6801,-5.686,-5.6907,-5.6911,-5.6977,-5.7072,-5.7128,-5.724,-5.733,-5.7412,-5.7443,-5.7413,-5.7412,-5.7439,-5.7441,-5.7434,-5.7438,-5.7117,-5.7404,-5.7401,-5.74,-5.7399,-5.7398,-5.6267,-5.6355,-5.6416,-5.647,-5.6504,-5.6591,-5.6644,-5.6641,-5.6698,-5.6771,-5.6838,-5.6929,-5.7001,-5.7153,-5.7178,-5.7262,-5.7248,-5.7356,-5.726,-5.726,-5.7247,-5.7241,-5.725,-5.7374,-5.7377,-5.7379,-5.7381,0,-5.6127,-5.6139,-5.6277,-5.6328,-5.6344,-5.6437,-5.648,-5.6556,-5.657,-5.6677,-5.6701,-5.6723,-5.6817,-5.6825,-5.6934,-5.6935,-5.7088,-5.7073,-5.7068,-5.7065,-5.7162,-5.7152,-5.7477,-5.7519,-5.7242,-5.7245,-5.7247,0,-5.5921,-5.6037,-5.6046,-5.6126,-5.6255,-5.6248,-5.6375,-5.64,-5.6446,-5.653,-5.6498,-5.6577,-5.6575,-5.6656,-5.6658,-5.6784,-5.6805,-5.6813,-5.6811,-5.6814,-5.6813,-5.6842,-5.6828,-5.6807,-5.6805,-5.6804,-5.6803,0,-5.5699,-5.584,-5.597,-5.6004,-5.6069,-5.6131,-5.6161,-5.6212,-5.6265,-5.6334,-5.6367,-5.6449,-5.6493,-5.6557,-5.6558,-5.6492,-5.6713,-5.6623,-5.6721,-5.6721,-5.6767,-5.6763,-5.7052,-5.6801,-5.68,-5.68,-5.6799,0,-5.5532,-5.5602,-5.5789,-5.5842,-5.5879,-5.5966,-5.6044,-5.6119,-5.6176,-5.6183,-5.6237,-5.6215,-5.6327,-5.6237,-5.639,-5.6304,-5.6349,-5.6367,-5.6374,-5.6382,-5.628,-5.6439,-5.6715,-5.6743,-5.6393,-5.639,-5.6387,0,-5.5274,-5.5466,-5.546,-5.5639,-5.5728,-5.5684,-5.578,-5.5831,-5.5847,-5.5925,-5.5942,-5.6031,-5.5966,-5.5994,-5.607,-5.6091,-5.6203,-5.6076,-5.6187,-5.6191,-5.6171,-5.6426,-5.6463,-5.6654,-5.6344,-5.6348,-5.6352,0,-5.5075,-5.5152,-5.5185,-5.5222,-5.5288,-5.5362,-5.5473,-5.5558,-5.561,-5.5672,-5.5763,-5.5889,-5.5844,-5.5891,-5.5882,-5.596,-5.6127,-5.59,-5.5902,-5.5939,-5.6323,-5.6358,-5.639,-5.6103,-5.6109,-5.6113,-5.6317,0,-5.4817,-5.4914,-5.5002,-5.5086,-5.5145,-5.5257,-5.5263,-5.5323,-5.5308,-5.5321,-5.5456,-5.5499,-5.5587,-5.5625,-5.5611,-5.5787,-5.5758,-5.5709,-5.5618,-5.5787,-5.5854,-5.5882,-5.5518,-5.5515,-5.5513,-5.5511,0,0,-5.4567,-5.4705,-5.4694,-5.48,-5.4848,-5.48,-5.4919,-5.496,-5.5045,-5.508,-5.503,-5.5213,-5.525,-5.5413,-5.5466,-5.5503,-5.5534,-5.5474,-5.5707,-5.5729,-5.5749,-5.5821,-5.585,-5.5507,-5.5507,-5.5506,-5.5505,0,-5.4472,-5.4512,-5.463,-5.4672,-5.4734,-5.4742,-5.4771,-5.4823,-5.4836,-5.4969,-5.4926,-5.5008,-5.5154,-5.5198,-5.524,-5.5456,-5.5418,-5.5483,-5.5596,-5.5685,-5.571,-5.5731,-5.5807,-5.5835,-5.55,-5.55,-5.55,0,-5.4275,-5.4314,-5.4371,-5.4479,-5.4519,-5.4612,-5.4519,-5.4622,-5.469,-5.463,-5.4761,-5.4786,-5.4846,-5.5,-5.5069,-5.5025,-5.5311,-5.5222,-5.5236,-5.5243,-5.5329,-5.5359,-5.5385,-5.5036,-5.5034,-5.5032,0,0,-5.4193,-5.4283,-5.4322,-5.4459,-5.4487,-5.45,-5.455,-5.4538,-5.4593,-5.4615,-5.4644,-5.4699,-5.4783,-5.4839,-5.4919,-5.5088,-5.5099,-5.5165,-5.5187,-5.5205,-5.5221,-5.5312,-5.5341,-5.5026,-5.5026,-5.5026,0,0,-5.4153,-5.4203,-5.4177,-5.4337,-5.4391,-5.4437,-5.4521,-5.449,-5.4561,-5.4549,-5.4534,-5.4547,-5.4691,-5.4717,-5.4633,-5.4886,-5.4797,-5.4817,-5.4864,-5.4891,-5.4913,-5.4902,-5.4543,0,0,0,0,0,-5.4058,-5.4197,-5.4173,-5.42,-5.4335,-5.4451,-5.4468,-5.4458,-5.4395,-5.4462,-5.4482,-5.4438,-5.4669,-5.4594,-5.4622,-5.4714,-5.4946,-5.496,-5.4974,-5.5073,-5.5102,-5.5127,0,0,0,0,0,0,-5.4069,-5.4103,-5.4169,-5.4222,-5.4252,-5.4446,-5.4337,-5.4338,-5.4388,-5.4378,-5.4435,-5.4439,-5.4433,-5.458,-5.4605,-5.4692,-5.4534,-5.4952,-5.4964,-5.4975,-5.5083,-5.5107,-5.5127,0,0,0,0,0,-5.4078,-5.4104,-5.4324,-5.422,-5.4246,-5.4267,-5.4331,-5.4332,-5.437,-5.4401,-5.4403,-5.4358,-5.4436,-5.4456,-5.4594,-5.4681,-5.4517,-5.4526,-5.496,-5.4969,-5.4978,-5.5095,0,0,0,0,0,0,-5.4084,-5.4106,-5.4329,-5.4336,-5.4166,-5.4255,-5.4269,-5.4326,-5.4389,-5.4394,-5.4322,-5.4313,-5.444,-5.4455,-5.4471,-5.4678,-5.4503,-5.4512,-5.4518,-5.4967,-5.4974,-5.4981,0,0,0,0,0,0,-5.4091,-5.4112,-5.4333,-5.4265,-5.4265,-5.4245,-5.4258,-5.4373,-5.4391,-5.4307,-5.4301,-5.4317,-5.4416,-5.4455,-5.4467,-5.4648,-5.4492,-5.4501,-5.4507,-5.4511,-5.4973,-5.4979,0,0,0,0,0,0,-5.41,-5.4118,-5.4263,-5.4263,-5.4263,-5.4348,-5.4347,-5.4486,-5.4333,-5.4305,-5.4319,-5.4313,-5.4417,-5.4429,-5.4464,-5.464,-5.4646,-5.4492,-5.4498,-5.4503,-5.4506,0,0,0,0,0,0,0,-5.4107,-5.3986,-5.4284,-5.4262,-5.4261,-5.4407,-5.4409,-5.4411,-5.4332,-5.4326,-5.4321,-5.4316,-5.444,-5.445,-5.446,-5.4634,0,0,-5.4491,-5.4496,0,0,0,0,0,0,0,0,-5.3978,-5.3984,-5.4284,-5.4285,-5.4287,-5.4408,-5.4409,-5.4411,-5.4331,-5.4326,-5.4322,-5.4318,-5.4443,-5.4451,-5.4459,0,0,0,0,0,0,0,0,0,0,0,0,0,0,0,-5.4284,-5.4285,0,-5.4408,-5.4409,-5.4411,-5.433,-5.4327,-5.4323,-5.4319,-5.4445,-5.4452,-5.4458,0,0,0,0,0,0,0,0,0,0,0,0,0,0,0,0,0,0,0,0,0,0,0,0,0,0,0,0,0,0,0,0,0,0,0,0,0,0,0,0,0,0,0,0,0,0,0,0,0,0,0,0,0,0,0,0,0,0,0,0,0,0,0,0,0,0,0,0,0]}],[{"header":{"parameterUnit":"kt","parameterCategory":2,"dx":1,"dy":1,"la1":30.253999710083008,"la2":30.299108505249023,"lo1":-89.0895004272461,"lo2":-89.04439544677734,"nx":28,"ny":28,"refTime":"2022-09-23T21:00:00:Z","depth":0,"parameterNumber":2,"parameterNumberName":"V-component_of_WINDS"},"data":[4.4475,4.4483,4.4477,4.4483,4.4479,4.4482,4.4481,4.448,4.4477,4.448,4.4481,4.4476,4.4471,4.4471,4.4472,4.4469,4.4469,4.4476,4.4472,4.4446,4.4442,4.4439,4.4435,4.4477,4.4477,4.4499,4.4499,4.4499,4.4457,4.4453,4.4455,4.4452,4.4454,4.4443,4.4441,4.4442,4.4445,4.4443,4.4443,4.4445,4.4447,4.4439,4.4439,4.4443,4.4437,4.4443,4.4441,4.444,4.4413,4.441,4.4447,4.4447,4.4447,4.4447,4.4447,4.4447,4.4422,4.4427,4.4422,4.4423,4.4421,4.4419,4.4423,4.4417,4.4418,4.4417,4.441,4.4414,4.4409,4.4407,4.4404,4.4407,4.4399,4.4403,4.4404,4.4404,4.4405,4.4372,4.4407,4.4407,4.4407,4.4407,4.4406,0,4.4394,4.4389,4.439,4.4389,4.439,4.4389,4.4387,4.4389,4.4376,4.4378,4.438,4.438,4.4381,4.4382,4.4381,4.4377,4.4365,4.4364,4.4367,4.4368,4.4371,4.4368,4.4322,4.4363,4.4362,4.4362,4.4362,4.4362,4.4356,4.4363,4.4355,4.4357,4.4354,4.4357,4.4357,4.4345,4.4346,4.4341,4.4347,4.4348,4.4348,4.4353,4.4345,4.4345,4.4339,4.4355,4.4339,4.4341,4.4337,4.4335,4.4335,4.4357,4.4358,4.4358,4.4359,0,4.4335,4.4325,4.4334,4.4325,4.4323,4.4331,4.4323,4.4327,4.4321,4.4326,4.4326,4.4315,4.4318,4.4307,4.4308,4.4302,4.4314,4.4309,4.4315,4.4313,4.4325,4.4323,4.4368,4.4373,4.4332,4.4332,4.4333,0,4.4298,4.4308,4.4292,4.4297,4.4308,4.4294,4.4305,4.43,4.4295,4.4299,4.4285,4.4289,4.4274,4.4277,4.4269,4.4277,4.4278,4.4273,4.427,4.4273,4.4273,4.4271,4.4268,4.4266,4.4266,4.4266,4.4265,0,4.4264,4.4268,4.4277,4.4276,4.4267,4.4272,4.4268,4.4263,4.4263,4.4263,4.4263,4.4263,4.4263,4.4263,4.4252,4.4241,4.4263,4.4245,4.4257,4.4257,4.426,4.426,4.4305,4.4265,4.4265,4.4265,4.4265,0,4.4232,4.4231,4.4247,4.4238,4.4239,4.4246,4.4244,4.4247,4.4243,4.4238,4.4237,4.4225,4.4233,4.4216,4.4226,4.4215,4.4215,4.4212,4.4213,4.421,4.4191,4.4215,4.4262,4.4265,4.4211,4.4211,4.4211,0,4.4195,4.4208,4.4196,4.4211,4.4215,4.4197,4.4204,4.4201,4.4194,4.4196,4.4189,4.4192,4.4178,4.4177,4.4184,4.4176,4.4191,4.4174,4.4176,4.4176,4.4175,4.4219,4.4227,4.4253,4.4205,4.4205,4.4206,0,4.4165,4.4153,4.4156,4.4153,4.4146,4.415,4.4159,4.4158,4.416,4.4159,4.4165,4.417,4.4159,4.4158,4.4148,4.4155,4.418,4.4142,4.4141,4.4147,4.4202,4.4209,4.4214,4.4172,4.4173,4.4173,4.4201,0,4.4114,4.4119,4.4129,4.4124,4.4125,4.4135,4.4121,4.4124,4.4114,4.4106,4.4116,4.411,4.411,4.4113,4.4103,4.4124,4.4118,4.4106,4.4087,4.4116,4.4125,4.4129,4.4075,4.4075,4.4074,4.4074,0,0,4.408,4.4086,4.4072,4.4079,4.4079,4.4059,4.407,4.4068,4.4063,4.4063,4.4053,4.4059,4.4054,4.4067,4.4075,4.4076,4.4078,4.4068,4.4103,4.4106,4.4109,4.4119,4.4123,4.4073,4.4072,4.4072,4.4072,0,4.4057,4.4053,4.4064,4.4061,4.4056,4.4046,4.4049,4.404,4.4035,4.4045,4.4027,4.4032,4.4037,4.4034,4.4033,4.4067,4.4053,4.4069,4.409,4.4098,4.4102,4.4106,4.4116,4.412,4.4071,4.4071,4.4071,0,4.4023,4.4016,4.402,4.4019,4.4015,4.402,4.3997,4.4004,4.4007,4.3984,4.3994,4.3988,4.3983,4.3998,4.4004,4.3995,4.403,4.4017,4.402,4.402,4.4027,4.4032,4.4037,4.3978,4.3978,4.3978,0,0,4.4006,4.401,4.3998,4.4013,4.4012,4.3998,4.4,4.3989,4.3985,4.3983,4.3975,4.3972,4.3975,4.3977,4.3979,4.3997,4.3994,4.4007,4.4011,4.4015,4.4016,4.4024,4.4029,4.3977,4.3977,4.3977,0,0,4.3997,4.3983,4.3973,4.3989,4.3985,4.3974,4.3983,4.3971,4.3971,4.3968,4.3951,4.3949,4.3962,4.3958,4.3946,4.3971,4.3953,4.3956,4.3973,4.3979,4.3983,4.3983,4.392,0,0,0,0,0,4.3966,4.3985,4.3976,4.3976,4.3974,4.3979,4.3979,4.3964,4.3951,4.3959,4.3951,4.3936,4.3948,4.3936,4.3937,4.395,4.3964,4.3966,4.3968,4.3995,4.4001,4.4006,0,0,0,0,0,0,4.3966,4.3967,4.3975,4.3965,4.3964,4.3978,4.3953,4.3949,4.395,4.3947,4.3938,4.3936,4.3923,4.3935,4.3936,4.3949,4.392,4.3964,4.3966,4.3968,4.3997,4.4002,4.4006,0,0,0,0,0,4.3966,4.3967,4.3967,4.3965,4.3964,4.3949,4.3952,4.3949,4.3949,4.3936,4.3933,4.3938,4.3924,4.3924,4.3936,4.3948,4.3919,4.392,4.3966,4.3967,4.3969,4.3999,0,0,0,0,0,0,4.3966,4.3964,4.3967,4.3966,4.3956,4.3948,4.3946,4.3949,4.3938,4.3935,4.3935,4.3933,4.3925,4.3925,4.3925,4.3949,4.3918,4.3919,4.3919,4.3967,4.3968,4.3969,0,0,0,0,0,0,4.3964,4.3964,4.3967,4.3957,4.3955,4.3947,4.3946,4.3954,4.3938,4.3937,4.3935,4.3934,4.3925,4.3925,4.3925,4.3938,4.3918,4.3918,4.3919,4.3919,4.3968,4.3969,0,0,0,0,0,0,4.3964,4.3964,4.3957,4.3955,4.3954,4.3945,4.3954,4.3953,4.3929,4.3938,4.3927,4.3926,4.3926,4.3926,4.3926,4.3939,4.3938,4.3918,4.3918,4.3918,4.3919,0,0,0,0,0,0,0,4.3963,4.3967,4.3971,4.3954,4.3953,4.396,4.396,4.3959,4.3929,4.3928,4.3927,4.3926,4.3915,4.3916,4.3916,4.3939,0,0,4.3918,4.3918,0,0,0,0,0,0,0,0,4.3967,4.3967,4.3971,4.3971,4.3971,4.396,4.396,4.3959,4.3929,4.3928,4.3927,4.3927,4.3916,4.3916,4.3916,0,0,0,0,0,0,0,0,0,0,0,0,0,0,0,4.3971,4.3971,0,4.396,4.396,4.3959,4.3929,4.3928,4.3928,4.3927,4.3916,4.3916,4.3916,0,0,0,0,0,0,0,0,0,0,0,0,0,0,0,0,0,0,0,0,0,0,0,0,0,0,0,0,0,0,0,0,0,0,0,0,0,0,0,0,0,0,0,0,0,0,0,0,0,0,0,0,0,0,0,0,0,0,0,0,0,0,0,0,0,0,0,0,0]}]]]